Weather in Ankara

Turkey     39˚55′14″N   32˚51′14″E
temp.,
°C
wind,
m/s
gust,
m/s
humid.,
%
clouds,
%
prec.,
mm/h
press.,
hPa
HPBL,
m
27 november, fri
fri2700:00+1˚ne12590 0.0 102622
03:00ene12640 0.0 102722
06:00−1˚ene12770 0.0 102722
09:00+1˚ne22700 0.0 102722
12:00+6˚ene12480 0.0 1025497
15:00+9˚ne12370 0.0 1022640
18:00+4˚e11530 0.0 102322
21:00+2˚e12610 0.0 102422
28 november, sat
sat2800:00ese01750 0.0 102522
03:00−1˚ene11760 0.0 102522
06:00−2˚e01770 0.0 102422
09:00+1˚ene11620 0.0 102522
12:00+7˚se01380 0.0 1023514
15:00+10˚sw13320 0.0 1021762
18:00+4˚ne11480 0.0 102222
21:00+2˚sse01560 0.0 102422
29 november, sun
sun2900:00+1˚sse00710 0.0 102422
03:00n01730 0.0 102422
06:00−1˚nne00740 0.0 102422
09:00+2˚ene11590 0.0 102422
12:00+9˚e01334 0.0 1022420
15:00+10˚wsw012924 0.0 1020660
18:00+5˚ene1142100 0.0 102022
21:00+4˚e1145100 0.0 102122
30 november, mon
mon3000:00+3˚ene1143100 0.0 102022
03:00+3˚ne1241100 0.0 101922
06:00+1˚ne1243100 0.0 101822
09:00+3˚ne1241100 0.0 101922
12:00+9˚ene2229100 0.0 1017342
15:00+11˚ese123298 0.0 1014901
18:00+6˚se115992 0.0 101522
21:00+5˚ene125296 0.0 101622
1 december, tue
tue100:00+6˚e1152100 0.1 101622
03:00+6˚ene1167100 0.5 101627
06:00+5˚nne1274100 0.8 101694
09:00+6˚nne1171100 1.1 101772
12:00+8˚s126591 0.3 1017522
15:00+7˚ne127396 0.8 1015308
18:00+7˚n227099 0.8 1016169
21:00+6˚nne2266100 0.9 1018110